Home   Weather   Thalwil   Past weeks

Flag for Switzerland Past Weather in Thalwil, Zurich, Switzerland — Yesterday and Last 2 Weeks

Now
20 °F

Cold.


Feels Like: 14 °F
Forecast: 17 / 24 °F
Wind: 5 mph from Northeast

Location: Zuerich-Fluntern

Current Time: Jan 24, 2017 at 10:40:36 pm

Latest Report: Jan 24, 2017 at 9:00 pm


Visibility: N/A

Pressure: 30.40 "Hg

Humidity: 88%

Dew Point: 17 °F

Location of ThalwilLocation

Past Weather in Thalwil — Graph

°F

Thalwil Temperature Yesterday

Maximum temperature yesterday: 24 °F (at 3:00 pm)
Minimum temperature yesterday: 18 °F (at 11:00 pm)
Average temperature yesterday: 21 °F

High & Low Weather Summary for the Past Weeks

 TemperatureHumidityPressure
High41 °F (Jan 12, 2:00 pm)99% (Jan 10, 6:00 pm)30.55 "Hg (Jan 10, 6:00 pm)
Low17 °F (Jan 24, 12:00 am)65% (Jan 13, 12:00 pm)29.55 "Hg (Jan 13, 12:00 am)
Average26 °F86%30.24 "Hg
* Reported Jan 9 9:00 pm — Jan 24 9:00 pm, Thalwil, Weather by CustomWeather, © 2017

Note: Actual official high and low records may vary slightly from our data, if they occured in-between our weather recording intervals... More about our weather records

Advertising

Thalwil Weather History for the Previous 24 Hours

Scroll right to see more
 ConditionsComfort  
Time TempWeatherWind HumidityBarometerVisibility
9:00 pm
Tue, Jan 24
20 °FCold.5 mph88%30.40 "HgN/A
8:00 pm21 °FCold.5 mph86%30.40 "HgN/A
7:00 pm21 °FOvercast.3 mph88%30.40 "HgN/A
6:00 pm21 °FCold.5 mph88%30.39 "HgN/A
5:00 pm22 °FCold.3 mph89%30.38 "HgN/A
4:00 pm21 °FCold.2 mph87%30.37 "HgN/A
3:00 pm22 °FCold.3 mph88%30.35 "HgN/A
2:00 pm21 °FCold.2 mph87%30.35 "HgN/A
1:00 pm21 °FCold.2 mph83%30.36 "HgN/A
12:00 pm21 °FCold.5 mph88%30.37 "HgN/A
11:00 am21 °FCold.2 mph90%30.38 "HgN/A
10:00 am20 °FCold.3 mph91%30.37 "HgN/A
9:00 am20 °FCold.3 mph91%30.36 "HgN/A
8:00 am19 °FCold.2 mph91%30.36 "HgN/A
7:00 am19 °FOvercast.1 mph91%30.35 "HgN/A
6:00 am19 °FCold.1 mph91%30.34 "HgN/A
5:00 am19 °FCold.1 mph93%30.34 "HgN/A
4:00 am19 °FCold.2 mph93%30.34 "HgN/A
3:00 am19 °FCold.1 mph92%30.34 "HgN/A
2:00 am19 °FCold.1 mph91%30.34 "HgN/A
1:00 am18 °FCold.2 mph92%30.34 "HgN/A
12:00 am17 °FCold.3 mph96%30.34 "HgN/A
11:00 pm
Mon, Jan 23
18 °FCold.6 mph93%30.33 "HgN/A
10:00 pm18 °FCold.2 mph95%30.33 "HgN/A
Weather by CustomWeather, © 2017

See weather overviewHow to use our weather pages